| time (UTC) | temp C | wind direction | speed KPH | gust KPH | rain 1hr cm | rain 24hr cm | rain mn cm | humidity % | barometer mb |
| 20260905235808 | 17 | 271 | 6.4 | 12.9 | 0.00 | 0.00 | 0.00 | 6 | 1020.0 |
| 20260905235308 | 17 | 296 | 3.2 | 14.5 | 0.00 | 0.00 | 0.00 | 6 | 1020.1 |
| 20260905234808 | 17 | 330 | 12.9 | 17.7 | 0.00 | 0.00 | 0.00 | 6 | 1020.1 |
| 20260905234308 | 17 | 272 | 3.2 | 9.7 | 0.00 | 0.00 | 0.00 | 6 | 1019.9 |
| 20260905233808 | 17 | 239 | 6.4 | 9.7 | 0.00 | 0.00 | 0.00 | 6 | 1019.8 |
| 20260905233308 | 17 | 265 | 9.7 | 16.1 | 0.00 | 0.00 | 0.00 | 6 | 1019.8 |
| 20260905232808 | 17 | 270 | 3.2 | 6.4 | 0.00 | 0.00 | 0.00 | 6 | 1019.8 |
| 20260905232308 | 17 | 243 | 9.7 | 14.5 | 0.00 | 0.00 | 0.00 | 6 | 1019.9 |
| 20260905231808 | 17 | 270 | 8.0 | 16.1 | 0.00 | 0.00 | 0.00 | 6 | 1019.9 |
| 20260905231307 | 17 | 260 | 3.2 | 8.0 | 0.00 | 0.00 | 0.00 | 6 | 1020.2 |
| 20260905230808 | 17 | 287 | 3.2 | 16.1 | 0.00 | 0.00 | 0.00 | 6 | 1019.8 |
| 20260905230307 | 17 | 286 | 3.2 | 16.1 | 0.00 | 0.00 | 0.00 | 6 | 1019.9 |
| 20260905225807 | 17 | 279 | 6.4 | 17.7 | 0.00 | 0.00 | 0.00 | 6 | 1019.8 |
| 20260905225307 | 17 | 251 | 3.2 | 17.7 | 0.00 | 0.00 | 0.00 | 6 | 1019.9 |
| 20260905224807 | 17 | 227 | 4.8 | 14.5 | 0.00 | 0.00 | 0.00 | 6 | 1019.7 |
| 20260905224307 | 17 | 267 | 6.4 | 16.1 | 0.00 | 0.00 | 0.00 | 6 | 1019.8 |
| 20260905223807 | 17 | 278 | 3.2 | 17.7 | 0.00 | 0.00 | 0.00 | 6 | 1019.7 |
| 20260905223307 | 18 | 272 | 9.7 | 14.5 | 0.00 | 0.00 | 0.00 | 6 | 1020.0 |
| 20260905222807 | 18 | 275 | 8.0 | 14.5 | 0.00 | 0.00 | 0.00 | 6 | 1020.0 |
| 20260905222307 | 18 | 329 | 6.4 | 19.3 | 0.00 | 0.00 | 0.00 | 6 | 1019.7 |
| 20260905221807 | 18 | 283 | 9.7 | 16.1 | 0.00 | 0.03 | 0.00 | 6 | 1020.0 |
| 20260905221307 | 17 | 12 | 6.4 | 9.7 | 0.00 | 0.03 | 0.00 | 6 | 1020.0 |
| 20260905220807 | 17 | 287 | 3.2 | 12.9 | 0.00 | 0.03 | 0.00 | 6 | 1019.8 |
| 20260905220307 | 17 | 261 | 4.8 | 9.7 | 0.00 | 0.03 | 0.00 | 6 | 1019.8 |
| 20260905215807 | 17 | 281 | 4.8 | 9.7 | 0.00 | 0.03 | 0.03 | 6 | 1020.0 |
| 20260905215307 | 17 | 273 | 4.8 | 8.0 | 0.00 | 0.03 | 0.03 | 6 | 1020.0 |
| 20260905214807 | 17 | 283 | 3.2 | 9.7 | 0.00 | 0.03 | 0.03 | 6 | 1019.7 |
| 20260905214307 | 17 | 292 | 4.8 | 6.4 | 0.00 | 0.03 | 0.03 | 6 | 1019.9 |
| 20260905213807 | 17 | 267 | 3.2 | 4.8 | 0.00 | 0.03 | 0.03 | 5 | 1019.7 |
| 20260905213307 | 17 | 258 | 6.4 | 14.5 | 0.00 | 0.03 | 0.03 | 5 | 1019.6 |
| 20260905212807 | 17 | 261 | 6.4 | 12.9 | 0.00 | 0.03 | 0.03 | 5 | 1019.6 |
| 20260905212307 | 17 | 309 | 6.4 | 12.9 | 0.00 | 0.03 | 0.03 | 5 | 1019.4 |
| 20260905211807 | 18 | 263 | 3.2 | 8.0 | 0.00 | 0.03 | 0.03 | 5 | 1019.7 |
| 20260905211307 | 18 | 249 | 3.2 | 8.0 | 0.00 | 0.03 | 0.03 | 5 | 1019.3 |
| 20260905210807 | 18 | 285 | 6.4 | 9.7 | 0.00 | 0.03 | 0.03 | 5 | 1019.4 |
| 20260905210307 | 18 | 306 | 1.6 | 9.7 | 0.00 | 0.03 | 0.03 | 5 | 1019.2 |
| 20260905205807 | 18 | 272 | 3.2 | 8.0 | 0.00 | 0.03 | 0.03 | 5 | 1019.1 |
| 20260905205307 | 18 | 316 | 3.2 | 16.1 | 0.00 | 0.03 | 0.03 | 5 | 1019.3 |
| 20260905204807 | 18 | 279 | 4.8 | 12.9 | 0.00 | 0.03 | 0.03 | 5 | 1019.3 |
| 20260905204307 | 18 | 312 | 4.8 | 17.7 | 0.00 | 0.03 | 0.03 | 5 | 1019.5 |
| 20260905203806 | 18 | 268 | 3.2 | 16.1 | 0.00 | 0.03 | 0.03 | 5 | 1019.3 |
| 20260905203306 | 18 | 308 | 6.4 | 20.9 | 0.00 | 0.03 | 0.03 | 5 | 1019.0 |
| 20260905202306 | 18 | 298 | 4.8 | 12.9 | 0.00 | 0.03 | 0.03 | 5 | 1019.1 |
| 20260905201806 | 18 | 1 | 9.7 | 19.3 | 0.00 | 0.03 | 0.03 | 5 | 1019.0 |
| 20260905201306 | 18 | 296 | 8.0 | 17.7 | 0.00 | 0.03 | 0.03 | 5 | 1019.1 |
| 20260905200806 | 18 | 333 | 11.3 | 24.1 | 0.00 | 0.03 | 0.03 | 6 | 1018.8 |
| 20260905200306 | 18 | 307 | 11.3 | 19.3 | 0.00 | 0.03 | 0.03 | 6 | 1019.0 |
| 20260905195806 | 18 | 309 | 9.7 | 19.3 | 0.00 | 0.03 | 0.03 | 6 | 1018.9 |
| 20260905195307 | 18 | 280 | 6.4 | 14.5 | 0.00 | 0.03 | 0.03 | 6 | 1018.8 |
| 20260905194806 | 18 | 313 | 4.8 | 9.7 | 0.00 | 0.03 | 0.03 | 6 | 1018.6 |
| 20260905194306 | 18 | 309 | 6.4 | 17.7 | 0.00 | 0.03 | 0.03 | 6 | 1018.7 |
| 20260905193806 | 18 | 268 | 3.2 | 12.9 | 0.00 | 0.03 | 0.03 | 6 | 1018.4 |
| 20260905193306 | 18 | 231 | 11.3 | 17.7 | 0.00 | 0.03 | 0.03 | 6 | 1018.6 |
| 20260905192806 | 18 | 318 | 9.7 | 19.3 | 0.00 | 0.03 | 0.03 | 6 | 1018.5 |
| 20260905192306 | 18 | 317 | 3.2 | 12.9 | 0.00 | 0.03 | 0.03 | 6 | 1018.5 |
| 20260905191806 | 18 | 293 | 8.0 | 20.9 | 0.00 | 0.03 | 0.03 | 6 | 1018.3 |
| 20260905191306 | 18 | 301 | 6.4 | 12.9 | 0.00 | 0.03 | 0.03 | 6 | 1018.5 |
| 20260905190806 | 18 | 279 | 4.8 | 9.7 | 0.00 | 0.03 | 0.03 | 6 | 1018.4 |
| 20260905190306 | 18 | 276 | 6.4 | 12.9 | 0.00 | 0.03 | 0.03 | 6 | 1018.3 |
| 20260905185806 | 18 | 0 | 6.4 | 8.0 | 0.00 | 0.03 | 0.03 | 6 | 1018.2 |
| 20260905185306 | 18 | 251 | 3.2 | 20.9 | 0.00 | 0.03 | 0.03 | 6 | 1018.4 |
| 20260905184806 | 18 | 271 | 3.2 | 12.9 | 0.00 | 0.03 | 0.03 | 6 | 1018.3 |
| 20260905184306 | 18 | 266 | 3.2 | 12.9 | 0.00 | 0.03 | 0.03 | 6 | 1018.4 |
| 20260905183806 | 18 | 273 | 3.2 | 14.5 | 0.00 | 0.03 | 0.03 | 6 | 1018.2 |
| 20260905183306 | 18 | 323 | 6.4 | 14.5 | 0.00 | 0.03 | 0.03 | 5 | 1018.1 |
| 20260905182806 | 18 | 255 | 4.8 | 9.7 | 0.00 | 0.03 | 0.03 | 5 | 1017.8 |
| 20260905182306 | 18 | 315 | 4.8 | 8.0 | 0.00 | 0.03 | 0.03 | 5 | 1017.9 |
| 20260905181806 | 18 | 317 | 3.2 | 12.9 | 0.00 | 0.03 | 0.03 | 5 | 1017.9 |
| 20260905181305 | 18 | 262 | 1.6 | 12.9 | 0.00 | 0.03 | 0.03 | 5 | 1017.8 |
| 20260905180805 | 18 | 33 | 3.2 | 6.4 | 0.00 | 0.03 | 0.03 | 5 | 1017.7 |
| 20260905180305 | 18 | 322 | 4.8 | 8.0 | 0.00 | 0.03 | 0.03 | 5 | 1017.8 |
| 20260905175806 | 18 | 316 | 8.0 | 9.7 | 0.00 | 0.03 | 0.03 | 5 | 1017.8 |
| 20260905175306 | 18 | 283 | 6.4 | 12.9 | 0.00 | 0.03 | 0.03 | 5 | 1017.6 |
| 20260905174805 | 18 | 312 | 3.2 | 12.9 | 0.00 | 0.03 | 0.03 | 5 | 1017.4 |
| 20260905174305 | 18 | 304 | 8.0 | 12.9 | 0.00 | 0.03 | 0.03 | 5 | 1017.3 |
| 20260905173805 | 19 | 292 | 4.8 | 8.0 | 0.00 | 0.03 | 0.03 | 5 | 1017.3 |
| 20260905173305 | 19 | 86 | 6.4 | 8.0 | 0.00 | 0.03 | 0.03 | 5 | 1017.3 |
| 20260905172805 | 19 | 355 | 6.4 | 12.9 | 0.00 | 0.03 | 0.03 | 5 | 1017.2 |
| 20260905172305 | 19 | 295 | 1.6 | 4.8 | 0.00 | 0.03 | 0.03 | 5 | 1017.0 |
| 20260905171805 | 19 | 266 | 3.2 | 8.0 | 0.00 | 0.03 | 0.03 | 5 | 1017.2 |
| 20260905171305 | 20 | 284 | 3.2 | 6.4 | 0.00 | 0.03 | 0.03 | 5 | 1017.0 |
| 20260905170805 | 20 | 279 | 3.2 | 4.8 | 0.00 | 0.03 | 0.03 | 5 | 1017.3 |
| 20260905170305 | 20 | 269 | 1.6 | 8.0 | 0.00 | 0.03 | 0.03 | 5 | 1017.4 |
| 20260905165805 | 20 | 286 | 3.2 | 8.0 | 0.00 | 0.03 | 0.03 | 5 | 1016.9 |
| 20260905165306 | 20 | 333 | 4.8 | 9.7 | 0.00 | 0.03 | 0.03 | 5 | 1016.9 |
| 20260905164805 | 20 | 308 | 3.2 | 8.0 | 0.00 | 0.03 | 0.03 | 5 | 1016.8 |
| 20260905164305 | 20 | 264 | 3.2 | 6.4 | 0.00 | 0.03 | 0.03 | 5 | 1016.7 |
| 20260905163805 | 20 | 2 | 3.2 | 4.8 | 0.00 | 0.03 | 0.03 | 5 | 1016.7 |
| 20260905163305 | 20 | 229 | 4.8 | 8.0 | 0.00 | 0.03 | 0.03 | 5 | 1016.6 |
| 20260905162805 | 20 | 291 | 6.4 | 9.7 | 0.00 | 0.03 | 0.03 | 5 | 1016.6 |
| 20260905162306 | 20 | 258 | 4.8 | 12.9 | 0.00 | 0.03 | 0.03 | 5 | 1016.6 |
| 20260905161805 | 20 | 239 | 3.2 | 6.4 | 0.00 | 0.03 | 0.03 | 5 | 1016.6 |
| 20260905161305 | 20 | 295 | 1.6 | 8.0 | 0.00 | 0.03 | 0.03 | 5 | 1017.0 |
| 20260905160805 | 20 | 359 | 3.2 | 9.7 | 0.00 | 0.03 | 0.03 | 5 | 1016.7 |
| 20260905160305 | 20 | 326 | 9.7 | 12.9 | 0.00 | 0.03 | 0.03 | 5 | 1016.6 |
| 20260905155805 | 20 | 276 | 3.2 | 9.7 | 0.00 | 0.03 | 0.03 | 5 | 1016.8 |
| 20260905155306 | 20 | 318 | 4.8 | 12.9 | 0.00 | 0.03 | 0.03 | 5 | 1016.7 |
| 20260905154805 | 21 | 290 | 1.6 | 9.7 | 0.00 | 0.03 | 0.03 | 5 | 1016.5 |
| 20260905154305 | 21 | 8 | 6.4 | 14.5 | 0.00 | 0.03 | 0.03 | 5 | 1016.5 |
| 20260905153805 | 21 | 268 | 4.8 | 14.5 | 0.00 | 0.03 | 0.03 | 5 | 1016.6 |
| 20260905153305 | 21 | 316 | 6.4 | 9.7 | 0.00 | 0.03 | 0.03 | 5 | 1016.5 |
| 20260905152804 | 21 | 282 | 3.2 | 12.9 | 0.00 | 0.03 | 0.03 | 5 | 1016.4 |
| 20260905152306 | 21 | 318 | 3.2 | 9.7 | 0.00 | 0.03 | 0.03 | 5 | 1016.5 |
| 20260905151805 | 21 | 247 | 4.8 | 12.9 | 0.00 | 0.03 | 0.03 | 5 | 1016.8 |
| 20260905151304 | 21 | 63 | 3.2 | 9.7 | 0.00 | 0.03 | 0.03 | 5 | 1016.6 |
| 20260905150804 | 21 | 352 | 6.4 | 12.9 | 0.00 | 0.03 | 0.03 | 5 | 1016.3 |
| 20260905150304 | 20 | 85 | 3.2 | 4.8 | 0.00 | 0.03 | 0.03 | 5 | 1016.6 |
| 20260905145804 | 20 | 358 | 9.7 | 16.1 | 0.00 | 0.03 | 0.03 | 4 | 1016.5 |
| 20260905145306 | 21 | 356 | 4.8 | 17.7 | 0.00 | 0.03 | 0.03 | 5 | 1016.6 |
| 20260905144804 | 21 | 57 | 3.2 | 9.7 | 0.00 | 0.03 | 0.03 | 5 | 1016.5 |
| 20260905144304 | 21 | 306 | 4.8 | 14.5 | 0.00 | 0.03 | 0.03 | 4 | 1016.4 |
| 20260905143804 | 21 | 258 | 1.6 | 16.1 | 0.00 | 0.03 | 0.03 | 4 | 1016.4 |
| 20260905143304 | 21 | 1 | 12.9 | 17.7 | 0.00 | 0.03 | 0.03 | 4 | 1016.2 |
| 20260905142804 | 21 | 322 | 14.5 | 27.4 | 0.00 | 0.03 | 0.03 | 4 | 1016.1 |
| 20260905142306 | 21 | 242 | 1.6 | 8.0 | 0.00 | 0.03 | 0.03 | 4 | 1016.2 |
| 20260905141804 | 21 | 320 | 3.2 | 8.0 | 0.00 | 0.03 | 0.03 | 4 | 1016.3 |
| 20260905141304 | 21 | 3 | 9.7 | 16.1 | 0.00 | 0.03 | 0.03 | 4 | 1016.2 |
| 20260905140804 | 22 | 81 | 6.4 | 14.5 | 0.00 | 0.03 | 0.03 | 4 | 1016.3 |
| 20260905140304 | 22 | 42 | 6.4 | 14.5 | 0.00 | 0.03 | 0.03 | 4 | 1016.5 |
| 20260905135804 | 22 | 261 | 4.8 | 8.0 | 0.00 | 0.03 | 0.03 | 4 | 1016.4 |
| 20260905135306 | 22 | 162 | 4.8 | 16.1 | 0.00 | 0.03 | 0.03 | 4 | 1016.1 |
| 20260905134804 | 22 | 350 | 6.4 | 9.7 | 0.00 | 0.03 | 0.03 | 4 | 1016.1 |
| 20260905134304 | 22 | 218 | 3.2 | 16.1 | 0.00 | 0.03 | 0.03 | 4 | 1016.0 |
| 20260905133804 | 22 | 344 | 9.7 | 20.9 | 0.00 | 0.03 | 0.03 | 4 | 1016.1 |
| 20260905133304 | 22 | 261 | 6.4 | 8.0 | 0.00 | 0.03 | 0.03 | 4 | 1016.0 |
| 20260905132804 | 22 | 4 | 3.2 | 12.9 | 0.00 | 0.03 | 0.03 | 4 | 1016.0 |
| 20260905132305 | 22 | 315 | 9.7 | 14.5 | 0.00 | 0.03 | 0.03 | 4 | 1015.9 |
| 20260905131804 | 22 | 26 | 1.6 | 6.4 | 0.00 | 0.03 | 0.03 | 4 | 1015.9 |
| 20260905131304 | 22 | 329 | 6.4 | 16.1 | 0.00 | 0.03 | 0.03 | 4 | 1015.8 |
| 20260905130804 | 21 | 272 | 8.0 | 17.7 | 0.00 | 0.03 | 0.03 | 4 | 1016.1 |
| 20260905130303 | 21 | 326 | 12.9 | 16.1 | 0.00 | 0.03 | 0.03 | 4 | 1016.2 |
| 20260905125803 | 21 | 343 | 8.0 | 16.1 | 0.00 | 0.03 | 0.03 | 4 | 1015.9 |
| 20260905125306 | 21 | 323 | 8.0 | 12.9 | 0.00 | 0.03 | 0.03 | 5 | 1015.9 |
| 20260905124803 | 21 | 102 | 1.6 | 9.7 | 0.00 | 0.03 | 0.03 | 5 | 1016.2 |
| 20260905124303 | 20 | 45 | 6.4 | 14.5 | 0.00 | 0.03 | 0.03 | 5 | 1016.4 |
| 20260905123803 | 20 | 349 | 6.4 | 24.1 | 0.00 | 0.03 | 0.03 | 5 | 1016.6 |
| 20260905123303 | 20 | 221 | 6.4 | 14.5 | 0.00 | 0.03 | 0.03 | 5 | 1016.3 |
| 20260905122803 | 20 | 297 | 8.0 | 16.1 | 0.00 | 0.03 | 0.03 | 5 | 1016.5 |
| 20260905122306 | 20 | 318 | 11.3 | 16.1 | 0.00 | 0.03 | 0.03 | 5 | 1016.6 |
| 20260905121803 | 20 | 57 | 9.7 | 20.9 | 0.00 | 0.03 | 0.03 | 5 | 1016.3 |
| 20260905121303 | 20 | 277 | 8.0 | 19.3 | 0.00 | 0.03 | 0.03 | 5 | 1016.5 |
| 20260905120804 | 20 | 343 | 9.7 | 24.1 | 0.00 | 0.03 | 0.03 | 5 | 1016.4 |
| 20260905120303 | 20 | 342 | 6.4 | 22.5 | 0.00 | 0.03 | 0.03 | 6 | 1016.4 |
| 20260905115803 | 19 | 17 | 4.8 | 8.0 | 0.03 | 0.03 | 0.03 | 6 | 1016.6 |
| 20260905115306 | 18 | 332 | 4.8 | 17.7 | 0.03 | 0.03 | 0.03 | 6 | 1016.7 |
| 20260905114803 | 17 | 288 | 11.3 | 14.5 | 0.03 | 0.03 | 0.03 | 6 | 1016.7 |
| 20260905114303 | 17 | 306 | 9.7 | 17.7 | 0.03 | 0.03 | 0.03 | 6 | 1017.2 |
| 20260905113803 | 17 | 296 | 8.0 | 16.1 | 0.03 | 0.03 | 0.03 | 6 | 1017.1 |
| 20260905113303 | 16 | 338 | 6.4 | 14.5 | 0.03 | 0.03 | 0.03 | 6 | 1017.3 |
| 20260905112803 | 16 | 1 | 9.7 | 12.9 | 0.03 | 0.03 | 0.03 | 6 | 1017.3 |
| 20260905112305 | 16 | 279 | 1.6 | 9.7 | 0.03 | 0.03 | 0.03 | 6 | 1017.3 |
| 20260905111803 | 16 | 350 | 6.4 | 9.7 | 0.03 | 0.03 | 0.03 | 6 | 1017.0 |
| 20260905111303 | 17 | 276 | 6.4 | 8.0 | 0.03 | 0.03 | 0.03 | 6 | 1016.8 |
| 20260905110803 | 17 | 346 | 3.2 | 6.4 | 0.03 | 0.03 | 0.03 | 6 | 1017.1 |
| 20260905110303 | 18 | 271 | 4.8 | 17.7 | 0.00 | 0.00 | 0.00 | 5 | 1016.8 |
| 20260905105803 | 19 | 307 | 9.7 | 19.3 | 0.00 | 0.00 | 0.00 | 5 | 1016.7 |
| 20260905105306 | 20 | 328 | 3.2 | 12.9 | 0.00 | 0.00 | 0.00 | 5 | 1016.5 |
| 20260905104803 | 20 | 332 | 3.2 | 6.4 | 0.00 | 0.00 | 0.00 | 5 | 1016.6 |
| 20260905104302 | 20 | 340 | 12.9 | 17.7 | 0.00 | 0.00 | 0.00 | 4 | 1016.2 |
| 20260905103803 | 20 | 359 | 8.0 | 29.0 | 0.00 | 0.00 | 0.00 | 4 | 1016.2 |
| 20260905103303 | 21 | 326 | 14.5 | 17.7 | 0.00 | 0.00 | 0.00 | 4 | 1016.0 |
| 20260905102803 | 21 | 329 | 8.0 | 12.9 | 0.00 | 0.00 | 0.00 | 4 | 1016.2 |
| 20260905102306 | 21 | 296 | 17.7 | 27.4 | 0.00 | 0.00 | 0.00 | 4 | 1016.1 |
| 20260905101802 | 21 | 260 | 12.9 | 22.5 | 0.00 | 0.00 | 0.00 | 4 | 1016.3 |
| 20260905101302 | 21 | 340 | 12.9 | 19.3 | 0.00 | 0.00 | 0.00 | 4 | 1016.1 |
| 20260905100802 | 21 | 356 | 4.8 | 29.0 | 0.00 | 0.00 | 0.00 | 4 | 1016.3 |
| 20260905100302 | 21 | 301 | 8.0 | 14.5 | 0.00 | 0.00 | 0.00 | 4 | 1016.2 |
| 20260905095802 | 21 | 30 | 12.9 | 40.2 | 0.00 | 0.00 | 0.00 | 4 | 1016.1 |
| 20260905095305 | 22 | 281 | 6.4 | 17.7 | 0.00 | 0.00 | 0.00 | 4 | 1016.4 |
| 20260905094802 | 21 | 323 | 16.1 | 22.5 | 0.00 | 0.00 | 0.00 | 4 | 1016.4 |
| 20260905094302 | 21 | 304 | 6.4 | 16.1 | 0.00 | 0.00 | 0.00 | 5 | 1016.4 |
| 20260905093802 | 20 | 9 | 6.4 | 27.4 | 0.00 | 0.00 | 0.00 | 5 | 1016.4 |
| 20260905093302 | 20 | 356 | 12.9 | 19.3 | 0.00 | 0.00 | 0.00 | 5 | 1016.7 |
| 20260905092802 | 20 | 332 | 12.9 | 17.7 | 0.00 | 0.00 | 0.00 | 5 | 1016.8 |
| 20260905092305 | 20 | 340 | 8.0 | 19.3 | 0.00 | 0.00 | 0.00 | 5 | 1016.5 |
| 20260905091802 | 20 | 221 | 8.0 | 22.5 | 0.00 | 0.00 | 0.00 | 5 | 1016.6 |
| 20260905091302 | 21 | 0 | 11.3 | 22.5 | 0.00 | 0.00 | 0.00 | 5 | 1016.6 |
| 20260905090802 | 21 | 344 | 12.9 | 24.1 | 0.00 | 0.00 | 0.00 | 5 | 1016.5 |
| 20260905090302 | 21 | 338 | 6.4 | 19.3 | 0.00 | 0.00 | 0.00 | 5 | 1016.3 |
| 20260905085802 | 21 | 341 | 6.4 | 17.7 | 0.00 | 0.00 | 0.00 | 5 | 1016.6 |
| 20260905085305 | 21 | 32 | 14.5 | 29.0 | 0.00 | 0.00 | 0.00 | 5 | 1016.1 |
| 20260905084802 | 21 | 317 | 9.7 | 16.1 | 0.00 | 0.00 | 0.00 | 5 | 1016.3 |
| 20260905084302 | 21 | 354 | 20.9 | 30.6 | 0.00 | 0.00 | 0.00 | 5 | 1016.2 |
| 20260905083802 | 20 | 7 | 12.9 | 24.1 | 0.00 | 0.00 | 0.00 | 5 | 1016.4 |
| 20260905083302 | 20 | 331 | 17.7 | 43.5 | 0.00 | 0.00 | 0.00 | 5 | 1016.1 |
| 20260905082802 | 20 | 237 | 22.5 | 40.2 | 0.00 | 0.00 | 0.00 | 6 | 1015.9 |
| 20260905082306 | 20 | 34 | 16.1 | 41.8 | 0.00 | 0.00 | 0.00 | 5 | 1015.7 |
| 20260905081802 | 21 | 327 | 6.4 | 32.2 | 0.00 | 0.00 | 0.00 | 5 | 1015.5 |
| 20260905081302 | 21 | 56 | 16.1 | 40.2 | 0.00 | 0.00 | 0.00 | 5 | 1015.5 |
| 20260905080801 | 21 | 23 | 11.3 | 32.2 | 0.00 | 0.00 | 0.00 | 5 | 1015.5 |
| 20260905080302 | 21 | 349 | 11.3 | 41.8 | 0.00 | 0.00 | 0.00 | 5 | 1015.4 |
| 20260905075801 | 21 | 22 | 6.4 | 33.8 | 0.00 | 0.00 | 0.00 | 5 | 1015.2 |
| 20260905075305 | 20 | 283 | 9.7 | 22.5 | 0.00 | 0.00 | 0.00 | 6 | 1015.0 |
| 20260905074801 | 21 | 4 | 11.3 | 35.4 | 0.00 | 0.00 | 0.00 | 6 | 1014.8 |
| 20260905074301 | 21 | 351 | 6.4 | 14.5 | 0.00 | 0.00 | 0.00 | 5 | 1014.9 |
| 20260905073801 | 21 | 299 | 1.6 | 27.4 | 0.00 | 0.00 | 0.00 | 5 | 1015.0 |
| 20260905073301 | 21 | 281 | 9.7 | 16.1 | 0.00 | 0.00 | 0.00 | 5 | 1014.0 |
| 20260905072801 | 21 | 344 | 19.3 | 24.1 | 0.00 | 0.00 | 0.00 | 5 | 1014.3 |
| 20260905072305 | 21 | 301 | 11.3 | 27.4 | 0.00 | 0.00 | 0.00 | 5 | 1014.0 |
| 20260905071801 | 21 | 300 | 16.1 | 30.6 | 0.00 | 0.00 | 0.00 | 5 | 1014.0 |
| 20260905071301 | 22 | 303 | 12.9 | 40.2 | 0.00 | 0.00 | 0.00 | 5 | 1013.6 |
| 20260905070801 | 22 | 322 | 16.1 | 30.6 | 0.00 | 0.00 | 0.00 | 5 | 1013.2 |
| 20260905070301 | 22 | 262 | 9.7 | 14.5 | 0.00 | 0.00 | 0.00 | 5 | 1013.6 |
| 20260905065801 | 23 | 276 | 9.7 | 22.5 | 0.00 | 0.00 | 0.00 | 5 | 1013.3 |
| 20260905065301 | 23 | 356 | 12.9 | 22.5 | 0.00 | 0.00 | 0.00 | 5 | 1012.9 |
| 20260905064801 | 23 | 332 | 11.3 | 22.5 | 0.00 | 0.00 | 0.00 | 5 | 1012.9 |
| 20260905064301 | 23 | 308 | 8.0 | 24.1 | 0.00 | 0.00 | 0.00 | 5 | 1012.8 |
| 20260905063801 | 23 | 351 | 16.1 | 19.3 | 0.00 | 0.00 | 0.00 | 5 | 1012.7 |
| 20260905063301 | 23 | 328 | 11.3 | 22.5 | 0.00 | 0.00 | 0.00 | 5 | 1012.6 |
| 20260905062801 | 23 | 278 | 6.4 | 27.4 | 0.00 | 0.00 | 0.00 | 5 | 1012.4 |
| 20260905062301 | 23 | 276 | 9.7 | 16.1 | 0.00 | 0.00 | 0.00 | 5 | 1012.5 |
| 20260905061801 | 24 | 10 | 11.3 | 22.5 | 0.00 | 0.00 | 0.00 | 5 | 1012.3 |
| 20260905061301 | 24 | 336 | 9.7 | 19.3 | 0.00 | 0.00 | 0.00 | 5 | 1012.1 |
| 20260905060801 | 24 | 262 | 3.2 | 12.9 | 0.00 | 0.00 | 0.00 | 4 | 1012.0 |
| 20260905060301 | 24 | 283 | 1.6 | 8.0 | 0.00 | 0.00 | 0.00 | 4 | 1012.0 |
| 20260905055801 | 24 | 291 | 1.6 | 8.0 | 0.00 | 0.00 | 0.00 | 4 | 1012.0 |
| 20260905055301 | 25 | 248 | 8.0 | 16.1 | 0.00 | 0.00 | 0.00 | 4 | 1011.8 |
| 20260905054801 | 24 | 310 | 4.8 | 14.5 | 0.00 | 0.00 | 0.00 | 4 | 1012.0 |
| 20260905054301 | 24 | 309 | 3.2 | 12.9 | 0.00 | 0.00 | 0.00 | 4 | 1011.8 |
| 20260905053801 | 24 | 332 | 6.4 | 16.1 | 0.00 | 0.00 | 0.00 | 4 | 1011.8 |
| 20260905053301 | 23 | 227 | 4.8 | 6.4 | 0.00 | 0.00 | 0.00 | 4 | 1012.0 |
| 20260905052801 | 24 | 258 | 4.8 | 8.0 | 0.00 | 0.00 | 0.00 | 4 | 1011.6 |
| 20260905052300 | 24 | 269 | 9.7 | 12.9 | 0.00 | 0.00 | 0.00 | 4 | 1011.5 |
| 20260905051800 | 24 | 282 | 1.6 | 8.0 | 0.00 | 0.00 | 0.00 | 4 | 1011.6 |
| 20260905051300 | 24 | 305 | 3.2 | 8.0 | 0.00 | 0.00 | 0.00 | 4 | 1011.5 |
| 20260905050800 | 24 | 260 | 3.2 | 8.0 | 0.00 | 0.00 | 0.00 | 4 | 1011.6 |
| 20260905050300 | 24 | 284 | 8.0 | 9.7 | 0.00 | 0.00 | 0.00 | 4 | 1011.6 |
| 20260905045800 | 23 | 272 | 4.8 | 8.0 | 0.00 | 0.00 | 0.00 | 4 | 1011.4 |
| 20260905045300 | 23 | 313 | 3.2 | 8.0 | 0.00 | 0.00 | 0.00 | 4 | 1011.3 |
| 20260905044800 | 23 | 270 | 6.4 | 8.0 | 0.00 | 0.00 | 0.00 | 4 | 1011.3 |
| 20260905044300 | 23 | 313 | 4.8 | 8.0 | 0.00 | 0.00 | 0.00 | 4 | 1011.2 |
| 20260905043800 | 23 | 292 | 6.4 | 14.5 | 0.00 | 0.00 | 0.00 | 4 | 1011.2 |
| 20260905043300 | 23 | 305 | 4.8 | 9.7 | 0.00 | 0.00 | 0.00 | 4 | 1011.2 |
| 20260905042800 | 23 | 345 | 6.4 | 19.3 | 0.00 | 0.00 | 0.00 | 4 | 1011.2 |
| 20260905042300 | 23 | 308 | 3.2 | 9.7 | 0.00 | 0.00 | 0.00 | 4 | 1011.2 |
| 20260905041800 | 23 | 7 | 11.3 | 20.9 | 0.00 | 0.00 | 0.00 | 4 | 1011.3 |
| 20260905041300 | 23 | 2 | 4.8 | 17.7 | 0.00 | 0.00 | 0.00 | 4 | 1011.1 |
| 20260905040800 | 23 | 344 | 4.8 | 20.9 | 0.00 | 0.00 | 0.00 | 4 | 1011.0 |
| 20260905040300 | 23 | 24 | 6.4 | 9.7 | 0.00 | 0.00 | 0.00 | 4 | 1011.0 |
| 20260905035800 | 23 | 330 | 6.4 | 16.1 | 0.00 | 0.00 | 0.00 | 4 | 1011.1 |
| 20260905035300 | 23 | 328 | 6.4 | 14.5 | 0.00 | 0.00 | 0.00 | 4 | 1010.8 |
| 20260905034800 | 23 | 119 | 11.3 | 24.1 | 0.00 | 0.00 | 0.00 | 5 | 1010.9 |
| 20260905034300 | 23 | 248 | 8.0 | 20.9 | 0.00 | 0.00 | 0.00 | 5 | 1011.0 |
| 20260905033800 | 23 | 266 | 9.7 | 17.7 | 0.00 | 0.00 | 0.00 | 5 | 1010.8 |
| 20260905033300 | 23 | 292 | 4.8 | 16.1 | 0.00 | 0.00 | 0.00 | 5 | 1010.8 |
| 20260905032800 | 23 | 295 | 3.2 | 20.9 | 0.00 | 0.00 | 0.00 | 5 | 1010.8 |
| 20260905032300 | 22 | 248 | 6.4 | 14.5 | 0.00 | 0.00 | 0.00 | 5 | 1011.1 |
| 20260905031800 | 22 | 325 | 8.0 | 16.1 | 0.00 | 0.00 | 0.00 | 5 | 1011.1 |
| 20260905031300 | 22 | 323 | 6.4 | 14.5 | 0.00 | 0.00 | 0.00 | 5 | 1011.3 |
| 20260905030800 | 22 | 235 | 6.4 | 12.9 | 0.00 | 0.00 | 0.00 | 5 | 1011.2 |
| 20260905030300 | 22 | 289 | 6.4 | 14.5 | 0.00 | 0.00 | 0.00 | 5 | 1011.2 |
| 20260905025800 | 22 | 288 | 11.3 | 19.3 | 0.00 | 0.00 | 0.00 | 5 | 1011.3 |
| 20260905025259 | 22 | 267 | 6.4 | 12.9 | 0.00 | 0.00 | 0.00 | 5 | 1011.1 |
| 20260905024759 | 22 | 251 | 6.4 | 14.5 | 0.00 | 0.00 | 0.00 | 5 | 1011.0 |
| 20260905024300 | 22 | 284 | 6.4 | 12.9 | 0.00 | 0.00 | 0.00 | 5 | 1011.2 |
| 20260905023759 | 23 | 274 | 6.4 | 14.5 | 0.00 | 0.00 | 0.00 | 5 | 1011.3 |
| 20260905023259 | 23 | 333 | 9.7 | 19.3 | 0.00 | 0.00 | 0.00 | 5 | 1011.1 |
| 20260905022759 | 23 | 273 | 4.8 | 12.9 | 0.00 | 0.00 | 0.00 | 5 | 1011.0 |
| 20260905022259 | 23 | 336 | 6.4 | 16.1 | 0.00 | 0.00 | 0.00 | 5 | 1011.1 |
| 20260905021759 | 23 | 296 | 6.4 | 17.7 | 0.00 | 0.00 | 0.00 | 5 | 1011.2 |
| 20260905021259 | 22 | 283 | 8.0 | 17.7 | 0.00 | 0.00 | 0.00 | 5 | 1011.4 |
| 20260905020759 | 22 | 258 | 9.7 | 22.5 | 0.00 | 0.00 | 0.00 | 5 | 1011.1 |
| 20260905020259 | 22 | 268 | 8.0 | 14.5 | 0.00 | 0.00 | 0.00 | 5 | 1011.3 |
| 20260905015759 | 22 | 271 | 9.7 | 19.3 | 0.00 | 0.00 | 0.00 | 5 | 1011.4 |
| 20260905015259 | 22 | 283 | 11.3 | 22.5 | 0.00 | 0.00 | 0.00 | 5 | 1011.3 |
| 20260905014759 | 22 | 259 | 4.8 | 14.5 | 0.00 | 0.00 | 0.00 | 5 | 1011.3 |
| 20260905014259 | 22 | 255 | 11.3 | 16.1 | 0.00 | 0.00 | 0.00 | 5 | 1011.3 |
| 20260905013759 | 22 | 257 | 4.8 | 17.7 | 0.00 | 0.00 | 0.00 | 5 | 1010.9 |
| 20260905013259 | 22 | 311 | 9.7 | 17.7 | 0.00 | 0.00 | 0.00 | 5 | 1010.9 |
| 20260905012759 | 22 | 264 | 6.4 | 17.7 | 0.00 | 0.00 | 0.00 | 5 | 1011.1 |
| 20260905012259 | 22 | 307 | 9.7 | 16.1 | 0.00 | 0.00 | 0.00 | 5 | 1010.9 |
| 20260905011759 | 22 | 300 | 9.7 | 17.7 | 0.00 | 0.00 | 0.00 | 5 | 1011.1 |
| 20260905011259 | 22 | 276 | 8.0 | 14.5 | 0.00 | 0.00 | 0.00 | 5 | 1010.8 |
| 20260905010759 | 22 | 243 | 8.0 | 14.5 | 0.00 | 0.00 | 0.00 | 5 | 1010.9 |
| 20260905010259 | 22 | 248 | 9.7 | 19.3 | 0.00 | 0.00 | 0.00 | 5 | 1011.0 |
| 20260905005759 | 22 | 278 | 14.5 | 22.5 | 0.00 | 0.00 | 0.00 | 5 | 1010.9 |
| 20260905005259 | 22 | 291 | 8.0 | 20.9 | 0.00 | 0.00 | 0.00 | 5 | 1010.8 |
| 20260905004759 | 22 | 296 | 11.3 | 16.1 | 0.00 | 0.00 | 0.00 | 5 | 1010.8 |
| 20260905004259 | 22 | 311 | 9.7 | 17.7 | 0.00 | 0.00 | 0.00 | 5 | 1010.9 |
| 20260905003759 | 22 | 289 | 9.7 | 29.0 | 0.00 | 0.00 | 0.00 | 5 | 1010.8 |
| 20260905003259 | 22 | 265 | 14.5 | 19.3 | 0.00 | 0.00 | 0.00 | 5 | 1010.7 |
| 20260905002759 | 22 | 307 | 6.4 | 22.5 | 0.00 | 0.00 | 0.00 | 5 | 1010.6 |
| 20260905002258 | 22 | 286 | 12.9 | 20.9 | 0.00 | 0.00 | 0.00 | 5 | 1010.6 |
| 20260905001758 | 22 | 256 | 4.8 | 12.9 | 0.00 | 0.00 | 0.00 | 5 | 1010.8 |
| 20260905001259 | 22 | 245 | 6.4 | 20.9 | 0.00 | 0.00 | 0.00 | 5 | 1010.9 |
| 20260905000758 | 22 | 261 | 6.4 | 24.1 | 0.00 | 0.00 | 0.00 | 5 | 1011.1 |
| 20260905000258 | 22 | 277 | 12.9 | 22.5 | 0.00 | 0.00 | 0.00 | 5 | 1011.0 |